GW3643 Weather Reports


Display with metric or nautical units.
time (UTC)temp
F
wind
direction
speed
MPH
gust
MPH
rain 1hr
in
rain 24hr
in
rain mn
in
humidity
%
barometer
mb
20260502212545 61 174 2.0 7.0 0.00 0.49 0.49 73 1015.3
20260502212047 61 155 1.0 7.0 0.00 0.49 0.49 73 1015.2
20260502211551 61 168 3.0 7.0 0.00 0.49 0.49 73 1015.2
20260502211050 61 170 3.0 6.0 0.00 0.49 0.49 73 1015.2
20260502210548 61 174 2.0 4.0 0.00 0.49 0.49 74 1015.1
20260502210107 60 234 1.0 3.0 0.00 0.49 0.49 75 1015.2
20260502205546 60 0 0.0 1.0 0.00 0.49 0.49 76 1015.1
20260502205047 60 0 0.0 2.0 0.00 0.49 0.49 75 1015.2
20260502204557 60 0 0.0 3.0 0.00 0.49 0.49 75 1015.3
20260502204044 60 0 0.0 4.0 0.00 0.49 0.49 74 1015.2
20260502203547 61 234 1.0 4.0 0.00 0.49 0.49 74 1015.0
20260502203054 60 191 0.0 4.0 0.00 0.49 0.49 74 1015.0
20260502202549 60 180 0.0 5.0 0.00 0.49 0.49 74 1014.9
20260502202045 60 0 1.0 5.0 0.00 0.49 0.49 74 1014.9
20260502201555 60 205 0.0 5.0 0.00 0.49 0.49 74 1014.8
20260502201047 60 268 1.0 5.0 0.00 0.49 0.49 75 1014.7
20260502200546 60 197 1.0 4.0 0.00 0.49 0.49 74 1014.8
20260502200052 60 0 1.0 4.0 0.00 0.49 0.49 75 1014.8
20260502195546 60 227 0.0 4.0 0.00 0.49 0.49 75 1014.8
20260502195047 60 232 1.0 5.0 0.00 0.49 0.49 75 1014.9
20260502194557 60 0 1.0 5.0 0.00 0.49 0.49 75 1014.7
20260502194050 60 234 2.0 5.0 0.00 0.49 0.49 75 1014.7
20260502193543 60 195 2.0 5.0 0.00 0.49 0.49 74 1014.6
20260502193102 60 234 0.0 3.0 0.00 0.49 0.49 74 1014.5
20260502192544 60 0 0.0 3.0 0.00 0.49 0.49 74 1014.5
20260502192047 61 247 0.0 3.0 0.00 0.49 0.49 74 1014.5
20260502191602 61 240 0.0 3.0 0.00 0.49 0.49 73 1014.5
20260502191047 61 240 0.0 3.0 0.00 0.49 0.49 73 1014.5
20260502190550 61 0 0.0 3.0 0.00 0.49 0.49 73 1014.6
20260502190108 61 0 0.0 2.0 0.00 0.49 0.49 73 1014.6
20260502185546 61 313 0.0 2.0 0.00 0.49 0.49 73 1014.6
20260502185046 61 0 0.0 3.0 0.00 0.49 0.49 72 1014.5
20260502184606 61 0 1.0 3.0 0.00 0.49 0.49 71 1014.5
20260502184048 62 311 0.0 3.0 0.00 0.49 0.49 71 1014.5
20260502183546 62 311 0.0 4.0 0.00 0.49 0.49 70 1014.4
20260502183110 62 235 0.0 6.0 0.00 0.49 0.49 70 1014.4
20260502182543 62 288 0.0 6.0 0.00 0.49 0.49 69 1014.5
20260502182043 62 253 1.0 8.0 0.00 0.49 0.49 69 1014.5
20260502181552 62 276 1.0 8.0 0.00 0.49 0.49 70 1014.5
20260502181047 62 267 2.0 8.0 0.00 0.49 0.49 70 1014.5
20260502180550 62 281 2.0 8.0 0.00 0.49 0.49 71 1014.5
20260502164047 60 299 3.0 10.0 0.00 0.49 0.49 76 1015.0
20260502163544 60 341 1.0 9.0 0.00 0.49 0.49 77 1015.0
20260502163102 59 330 1.0 9.0 0.00 0.49 0.49 78 1015.1
20260502162544 59 302 1.0 6.0 0.00 0.49 0.49 80 1015.1
20260502162048 59 245 1.0 7.0 0.00 0.49 0.49 80 1015.2
20260502161620 59 296 1.0 7.0 0.00 0.49 0.49 81 1015.3
20260502161050 59 341 2.0 6.0 0.00 0.49 0.49 82 1015.4
20260502160547 59 336 2.0 6.0 0.00 0.49 0.49 83 1015.4
20260502152046 65 293 5.0 16.0 0.00 0.48 0.48 63 1015.6
20260502151555 66 245 5.0 15.0 0.00 0.48 0.48 63 1015.1
20260502151048 66 182 6.0 15.0 0.00 0.48 0.48 63 1015.0
20260502150544 67 220 4.0 11.0 0.00 0.48 0.48 64 1015.1
20260502130547 60 301 2.0 8.0 0.14 0.48 0.48 83 1016.6
20260502123543 57 3 2.0 10.0 0.14 0.48 0.48 83 1016.7
20260502123051 58 239 5.0 10.0 0.13 0.47 0.47 82 1017.6
20260502122543 60 195 2.0 8.0 0.06 0.40 0.40 82 1017.7
20260502122044 61 0 2.0 8.0 0.03 0.37 0.37 79 1017.2
20260502121553 62 261 2.0 8.0 0.01 0.35 0.35 76 1017.3
20260502121045 62 213 3.0 10.0 0.00 0.33 0.33 74 1017.2
20260502120544 62 211 4.0 11.0 0.00 0.33 0.33 74 1017.1
20260502115542 62 192 3.0 8.0 0.00 0.33 0.33 74 1017.1
20260502115044 62 227 2.0 8.0 0.00 0.33 0.33 75 1017.1
20260502114555 62 187 3.0 10.0 0.00 0.33 0.33 75 1017.3
20260502114047 61 176 4.0 10.0 0.00 0.33 0.33 75 1017.3
20260502113546 61 176 5.0 10.0 0.00 0.33 0.33 75 1017.4
20260502113054 61 153 4.0 10.0 0.00 0.33 0.33 75 1017.4
20260502112546 61 121 5.0 10.0 0.00 0.33 0.33 75 1017.5
20260502112043 62 167 4.0 10.0 0.00 0.33 0.33 76 1017.6
20260502111552 61 205 4.0 10.0 0.00 0.33 0.33 76 1017.7
20260502111044 61 166 4.0 11.0 0.00 0.33 0.33 77 1017.8
20260502110546 61 155 5.0 11.0 0.00 0.33 0.33 78 1017.8
20260502110057 60 188 4.0 9.0 0.00 0.33 0.33 79 1017.7
20260502105544 60 149 4.0 9.0 0.00 0.33 0.33 80 1017.9
20260502105043 60 158 4.0 10.0 0.00 0.33 0.33 80 1017.9
20260502104550 60 187 3.0 10.0 0.00 0.33 0.33 81 1018.1
20260502104044 60 169 4.0 9.0 0.00 0.33 0.33 82 1018.1
20260502103545 60 169 5.0 9.0 0.01 0.33 0.33 82 1018.1
20260502103048 59 140 1.0 6.0 0.04 0.33 0.33 83 1018.0
20260502102544 59 207 2.0 6.0 0.04 0.33 0.33 84 1018.1
20260502102047 59 173 2.0 6.0 0.04 0.33 0.33 83 1018.2
20260502101554 59 109 1.0 6.0 0.04 0.33 0.33 84 1018.2
20260502101046 59 176 3.0 7.0 0.04 0.33 0.33 84 1018.3
20260502100548 59 155 2.0 7.0 0.04 0.33 0.33 84 1018.4
20260502091044 58 125 1.0 9.0 0.06 0.29 0.29 86 1018.2
20260502090544 58 152 2.0 11.0 0.07 0.29 0.29 86 1018.2
20260502071047 58 188 4.0 9.0 0.06 0.10 0.10 84 1018.6
20260502070547 58 152 1.0 7.0 0.10 0.10 0.10 85 1018.3
20260502065545 58 126 1.0 6.0 0.10 0.10 0.10 85 1018.3
20260502065045 58 158 2.0 6.0 0.10 0.10 0.10 84 1018.3
20260502064551 58 153 3.0 6.0 0.10 0.10 0.10 84 1018.4
20260502064045 58 147 2.0 6.0 0.10 0.10 0.10 85 1018.5
20260502063545 58 183 2.0 5.0 0.10 0.10 0.10 85 1018.3
20260502063049 58 93 2.0 8.0 0.10 0.10 0.10 85 1018.4
20260502062545 58 161 1.0 9.0 0.09 0.09 0.09 84 1018.6
20260502062045 58 168 3.0 10.0 0.09 0.09 0.09 83 1018.6
20260502061553 58 205 4.0 10.0 0.09 0.09 0.09 81 1018.5
20260502061045 59 167 4.0 9.0 0.03 0.03 0.03 80 1018.6
20260502060548 59 188 4.0 9.0 0.00 0.00 0.00 80 1019.0
20260502060051 59 224 4.0 9.0 0.00 0.00 0.00 79 1018.8
20260502055545 59 152 1.0 6.0 0.00 0.00 0.00 79 1018.3
20260502055045 59 188 3.0 6.0 0.00 0.00 0.00 80 1018.0
20260502054552 59 0 2.0 6.0 0.00 0.00 0.00 80 1018.1
20260502054045 59 180 3.0 7.0 0.00 0.00 0.00 80 1017.9
20260502053545 59 205 1.0 7.0 0.00 0.00 0.00 80 1017.8
20260502053115 59 167 2.0 6.0 0.00 0.00 0.00 80 1017.8
20260502052546 59 148 2.0 6.0 0.00 0.00 0.00 80 1017.9
20260502052045 59 92 1.0 6.0 0.00 0.00 0.00 80 1018.0
20260502051604 59 0 1.0 7.0 0.00 0.00 0.00 80 1017.9
20260502051045 59 126 3.0 7.0 0.00 0.00 0.00 79 1018.0
20260502050544 59 199 2.0 7.0 0.00 0.00 0.00 79 1018.1
20260502050049 59 177 3.0 7.0 0.00 0.00 0.00 78 1018.2
20260502045545 59 147 0.0 7.0 0.00 0.00 0.00 77 1018.0
20260502045048 59 147 2.0 7.0 0.00 0.00 0.00 77 1018.3
20260502044550 59 175 2.0 9.0 0.00 0.00 0.00 77 1018.5
20260502044045 59 215 1.0 9.0 0.00 0.00 0.00 77 1018.4
20260502043545 59 176 4.0 9.0 0.00 0.00 0.00 77 1018.3
20260502043055 59 166 2.0 5.0 0.00 0.00 0.00 77 1018.2
20260502042548 59 161 1.0 6.0 0.00 0.00 0.00 77 1018.1
20260502042045 59 142 2.0 6.0 0.00 0.00 0.00 77 1018.2
20260502041604 59 84 2.0 6.0 0.00 0.00 0.00 77 1018.1
20260502041047 59 148 1.0 6.0 0.00 0.00 0.00 76 1018.0
20260502040547 59 118 1.0 6.0 0.00 0.00 0.00 77 1017.8
20260502040049 59 112 1.0 6.0 0.00 0.00 0.00 76 1018.0
20260502035544 59 151 3.0 6.0 0.00 0.00 0.00 76 1018.3
20260502035045 59 124 1.0 10.0 0.00 0.00 0.00 76 1018.2
20260502034549 59 166 4.0 10.0 0.00 0.00 0.00 76 1018.3
20260502034045 59 118 1.0 8.0 0.00 0.00 0.00 76 1018.2
20260502033545 59 0 2.0 9.0 0.00 0.00 0.00 76 1018.3
20260502033106 59 193 5.0 9.0 0.00 0.00 0.00 76 1018.5
20260502032544 59 191 2.0 6.0 0.00 0.00 0.00 76 1018.3
20260502032042 59 190 2.0 8.0 0.00 0.00 0.00 76 1018.2
20260502031551 59 176 2.0 8.0 0.00 0.00 0.00 76 1018.3
20260502031048 59 141 2.0 10.0 0.00 0.00 0.00 76 1018.3
20260502030546 59 175 5.0 10.0 0.00 0.00 0.00 76 1018.3
20260502030055 59 139 3.0 9.0 0.00 0.00 0.00 76 1018.3
20260502025546 59 181 2.0 9.0 0.00 0.00 0.00 76 1018.4
20260502025045 59 153 4.0 9.0 0.00 0.00 0.00 76 1018.4
20260502024554 59 156 2.0 7.0 0.00 0.00 0.00 76 1018.5
20260502024045 59 159 2.0 10.0 0.00 0.00 0.00 76 1018.5
20260502023545 59 202 3.0 10.0 0.00 0.00 0.00 76 1018.5
20260502023055 59 198 5.0 10.0 0.00 0.00 0.00 76 1018.6
20260502022545 59 81 3.0 7.0 0.00 0.00 0.00 75 1018.7
20260502022045 59 0 0.0 9.0 0.00 0.00 0.00 76 1018.6
20260502021552 59 186 3.0 9.0 0.00 0.00 0.00 75 1018.5
20260502021045 59 186 3.0 11.0 0.00 0.00 0.00 75 1018.5
20260502020545 59 174 4.0 14.0 0.00 0.00 0.00 75 1018.4
20260502020055 60 145 6.0 15.0 0.00 0.00 0.00 75 1018.4
20260502015545 60 181 7.0 15.0 0.00 0.00 0.00 75 1018.5
20260502015043 60 196 6.0 14.0 0.00 0.00 0.00 75 1018.3
20260502014553 60 193 6.0 17.0 0.00 0.00 0.00 75 1018.5
20260502014045 60 185 9.0 17.0 0.00 0.00 0.00 75 1018.6
20260502013547 60 177 6.0 16.0 0.00 0.00 0.00 75 1018.6
20260502013051 60 172 10.0 18.0 0.00 0.00 0.00 75 1018.5
20260502012545 60 145 8.0 18.0 0.00 0.00 0.00 74 1018.5
20260502012045 60 104 6.0 14.0 0.00 0.00 0.00 74 1018.4
20260502011553 60 181 7.0 13.0 0.00 0.00 0.00 74 1018.6
20260502011046 60 182 7.0 13.0 0.00 0.00 0.00 74 1018.7
20260502010543 60 193 5.0 13.0 0.00 0.00 0.00 74 1018.7
20260502010058 61 178 5.0 10.0 0.00 0.00 0.00 73 1018.8
20260502005547 61 149 5.0 10.0 0.00 0.00 0.00 73 1018.9
20260502005046 61 143 5.0 11.0 0.00 0.00 0.00 73 1019.0
20260502004552 61 130 5.0 11.0 0.00 0.00 0.00 73 1019.1
20260502004047 61 180 5.0 12.0 0.00 0.00 0.00 73 1019.1
20260502003549 61 164 5.0 12.0 0.00 0.00 0.00 73 1019.1
20260502003050 61 185 2.0 9.0 0.00 0.00 0.00 73 1018.9
20260502002545 61 161 5.0 13.0 0.00 0.00 0.00 73 1018.8
20260502002047 61 161 7.0 13.0 0.00 0.00 0.00 73 1018.9
20260502001558 61 118 4.0 11.0 0.00 0.00 0.00 72 1019.0
20260502001045 61 131 6.0 13.0 0.00 0.00 0.00 72 1019.1
20260502000546 61 186 7.0 13.0 0.00 0.00 0.00 72 1019.1
20260502000051 61 209 7.0 20.0 0.00 0.00 0.00 72 1019.1
20260501235545 61 190 8.0 20.0 0.00 0.00 0.00 72 1019.2
20260501235045 62 136 8.0 18.0 0.00 0.00 0.00 72 1019.2
20260501234549 62 132 4.0 18.0 0.00 0.00 0.00 71 1019.3
20260501234045 62 178 9.0 18.0 0.00 0.00 0.00 71 1019.2
20260501233545 62 177 9.0 16.0 0.00 0.00 0.00 71 1019.4
20260501233109 62 158 8.0 16.0 0.00 0.00 0.00 70 1019.4
20260501232545 62 166 8.0 18.0 0.00 0.00 0.00 70 1019.6
20260501232046 62 140 7.0 18.0 0.00 0.00 0.00 70 1019.4
20260501231624 63 176 10.0 18.0 0.00 0.00 0.00 69 1019.4
20260501231048 63 191 6.0 17.0 0.00 0.00 0.00 69 1019.4
20260501230545 63 207 6.0 17.0 0.00 0.00 0.00 69 1019.4
20260501230058 63 187 8.0 16.0 0.00 0.00 0.00 68 1019.4
20260501225547 63 197 6.0 16.0 0.00 0.00 0.00 68 1019.4
20260501225048 64 197 6.0 15.0 0.00 0.00 0.00 67 1019.4
20260501224554 64 202 7.0 16.0 0.00 0.00 0.00 67 1019.3
20260501224049 64 182 8.0 17.0 0.00 0.00 0.00 66 1019.3
20260501223547 64 193 10.0 21.0 0.00 0.00 0.00 66 1019.4
20260501223142 65 183 7.0 21.0 0.00 0.00 0.00 66 1019.3
20260501222547 65 192 8.0 17.0 0.00 0.00 0.00 65 1019.3
20260501222044 65 186 7.0 17.0 0.00 0.00 0.00 64 1019.3
20260501221551 65 157 7.0 15.0 0.00 0.00 0.00 64 1019.2
20260501221045 65 139 9.0 15.0 0.00 0.00 0.00 63 1019.1
20260501220542 66 174 6.0 13.0 0.00 0.00 0.00 63 1019.2
20260501220055 66 197 7.0 11.0 0.00 0.00 0.00 62 1019.2
20260501215545 66 182 5.0 12.0 0.00 0.00 0.00 62 1019.2
20260501215047 66 143 6.0 15.0 0.00 0.00 0.00 62 1019.2
20260501214559 66 148 7.0 18.0 0.00 0.00 0.00 61 1019.3
20260501214048 66 197 8.0 19.0 0.00 0.00 0.00 61 1019.2
20260501213546 67 136 8.0 19.0 0.00 0.00 0.00 61 1019.3
20260501213057 67 144 9.0 21.0 0.00 0.00 0.00 61 1019.3